Hourly Data Report for September 29, 2017

All times are specified in Local Standard Time (LST). Add 1 hour to adjust for Daylight Saving Time where and when it is observed.

EAST POINT (AUT)
PRINCE EDWARD ISLAND

46°27'36.000" N
61°59'18.000" W
7.70 m
8300418
71412
WEP

Download Data

Hourly Data (September 2017)
Hourly Data Report for September 29, 2017
Temp Definition
°C
Dew Point Temp Definition
°C
Rel Hum Definition
%
Wind Dir Definition
10's deg

Wind Spd Definition
km/h
Visibility Definition
km
Stn Press Definition
kPa
Hmdx Definition


Wind Chill Definition


Weather Definition


TIME
00:00 13.9 6.6 62 31 36   100.16     LegendNANA
01:00 13.7 8.1 69 31 30   100.18     LegendNANA
02:00 13.4 7.4 67 30 35   100.17     LegendNANA
03:00 13.0 6.7 66 30 34   100.19     LegendNANA
04:00 12.5 7.0 69 29 35   100.21     LegendNANA
05:00 12.4 6.9 69 29 34   100.25     LegendNANA
06:00 12.4 6.3 66 30 34   100.26     LegendNANA
07:00 12.2 6.3 67 30 34   100.34     LegendNANA
08:00 12.0 6.1 67 31 36   100.40     LegendNANA
09:00 11.8 6.7 71 30 33   100.46     LegendNANA
10:00 11.9 7.3 74 30 36   100.50     LegendNANA
11:00 12.3 8.0 75 30 36   100.49     LegendNANA
12:00 12.9 9.2 78 30 38   100.55     LegendNANA
13:00 12.4 9.4 82 33 32   100.57     LegendNANA
14:00 13.2 9.0 76 34 42   100.67     LegendNANA
15:00 12.0 9.1 82 34 39   100.78     LegendNANA
16:00 11.9 8.6 81 34 36   100.88     LegendNANA
17:00 12.1 8.6 79 33 38   100.98     LegendNANA
18:00 11.9 7.9 77 35 32   101.07     LegendNANA
19:00 12.1 8.5 78 34 31   101.14     LegendNANA
20:00 11.9 8.9 82 34 28   101.21     LegendNANA
21:00 12.2 9.0 81 1 35   101.27     LegendNANA
22:00 12.5 8.6 77 36 33   101.30     LegendNANA
23:00 12.0 9.6 85 2 29   101.38     LegendNANA

Notes on Data Quality.

Legend

  • E = Estimated
  • M = Missing
  • NA = Not Available
  • ‡ = Partner data that is not subject to review by the National Climate Archives
Date modified: